Location: Sternwarte auf dem Internationalen Platz Vogelsang IP
(50.5721°N, 6.4398°E)
Time: 09:52:53
(UTC+01:00)

A-11 Canister half - Pass Details

Date: 16 December 2025
Orbit: 1511 x 1688 km, 47.2° (Epoch: 15 January)

Event Time Altitude Azimuth Distance (km) Brightness Sun altitude
Rises 20:18:41 0° 285° (WNW) 4,734 12.6 -34.9°
Reaches altitude 10° 20:21:51 10° 280° (W) 3,771 11.8 -35.4°
Maximum altitude 20:30:50 48° 211° (SSW) 2,031 9.6 -36.8°
Enters shadow 20:32:35 44° 184° (S) 2,133 9.6 -37.1°
Drops below altitude 10° 20:40:09 10° 141° (SE) 3,893 - -38.3°
Sets 20:43:29 0° 136° (SE) 4,897 - -38.8°
